Flag for Canada Weather past 2 weeks in Whitby, Ontario, Canada

Now
9 °F

Sunny.


Feels Like: 9 °F
Forecast: 6 / 24 °F
Wind: 2 mph from West

Location: Toronto Buttonville

Current Time: Feb 28, 2015 at 9:52:45 AM

Latest Report: Feb 28, 2015 at 9:00 AM


Visibility: 15 mi

Pressure: 30.79 "Hg

Humidity: 61%

Dew point: -2 °F

Location of WhitbyLocation

Historic Weather in Whitby — Graph

°F

Whitby temperature yesterday

Maximum temperature yesterday: 16 °F (at 2:00 PM)
Minimum temperature yesterday: -11 °F (at 6:00 AM)
Average temperature yesterday: 5 °F

Past Weeks' High & Low Weather Summary

 TemperatureHumidityPressure
High25 °F (Feb 22, 2:00 PM)93% (Feb 14, 4:00 AM)30.77 "Hg (Feb 14, 4:00 AM)
Low-17 °F (Feb 15, 8:00 AM)24% (Feb 17, 4:00 PM)29.58 "Hg (Feb 14, 11:00 AM)
Average5 °F62%30.14 "Hg
* Reported Feb 13 8:00 AM — Feb 28 8:00 AM, Whitby, Weather by CustomWeather, © 2015

Note: Actual official high and low records may vary slightly from our data, if they occured in-between our weather recording intervals... More about our weather records

Advertising

Whitby weather history for previous 24 hours

 ConditionsComfort  
Time TempWeatherWind HumidityBarometerVisibility
8:00 AM
Sat, Feb 28
3 °FPassing clouds.5 mph66%30.77 "Hg15 mi
7:00 AM1 °FPassing clouds.3 mph65%30.75 "Hg15 mi
6:00 AM1 °FClear.5 mph71%30.73 "Hg15 mi
5:00 AM-4 °FClear.2 mph71%30.71 "Hg15 mi
4:00 AM-2 °FClear.2 mph71%30.69 "Hg15 mi
3:00 AM3 °FClear.3 mph66%30.68 "Hg15 mi
2:00 AM3 °FClear.3 mph72%30.68 "Hg15 mi
1:00 AM5 °FClear.3 mph66%30.68 "Hg15 mi
12:00 AM5 °FClear.6 mph66%30.66 "Hg15 mi
11:00 PM
Fri, Feb 27
5 °FClear.5 mph66%30.66 "Hg15 mi
10:00 PM5 °FClear.3 mph66%30.65 "Hg15 mi
9:00 PM7 °FClear.6 mph61%30.64 "Hg15 mi
8:00 PM9 °FClear.6 mph56%30.63 "Hg15 mi
7:00 PM10 °FClear.7 mph56%30.60 "Hg15 mi
6:00 PM10 °FPassing clouds.9 mph52%30.58 "Hg15 mi
5:00 PM14 °FPassing clouds.12 mph48%30.55 "Hg15 mi
4:00 PM16 °FPassing clouds.8 mph48%30.54 "Hg15 mi
3:00 PM16 °FScattered clouds.7 mph45%30.52 "Hg15 mi
2:00 PM16 °FPassing clouds.9 mph48%30.51 "Hg15 mi
1:00 PM14 °FPassing clouds.10 mph48%30.51 "Hg15 mi
12:00 PM12 °FPassing clouds.9 mph48%30.52 "Hg15 mi
11:00 AM10 °FPassing clouds.8 mph52%30.51 "Hg15 mi
10:00 AM9 °FPassing clouds.10 mph56%30.50 "Hg15 mi
9:00 AM5 °FPassing clouds.5 mph66%30.50 "Hg15 mi
Weather by CustomWeather, © 2015

See weather overviewHow to use our weather pages